FW7501 Weather Reports


Display with metric or nautical units.
time (UTC)temp
F
wind
direction
speed
MPH
gust
MPH
rain 1hr
in
rain 24hr
in
rain mn
in
humidity
%
barometer
mb
20260903013504 52 343 14.0 21.0 0.00 0.00 0.00 79 1014.5
20260903013004 53 358 14.0 20.0 0.00 0.00 0.00 81 1014.5
20260903012503 52 358 12.0 22.0 0.00 0.00 0.00 81 1014.4
20260903012004 51 337 10.0 22.0 0.00 0.00 0.00 82 1014.5
20260903011504 51 338 12.0 19.0 0.00 0.00 0.00 82 1014.4
20260903011004 50 351 11.0 19.0 0.00 0.00 0.00 82 1014.4
20260903010505 50 353 11.0 19.0 0.00 0.00 0.00 82 1014.3
20260903010004 50 337 12.0 21.0 0.00 0.00 0.00 81 1014.3
20260903005503 50 335 15.0 21.0 0.00 0.00 0.00 79 1014.1
20260903005006 51 14 13.0 22.0 0.00 0.00 0.00 79 1014.0
20260903004502 51 339 15.0 22.0 0.00 0.00 0.00 78 1014.0
20260903004004 50 14 12.0 22.0 0.00 0.00 0.00 79 1013.9
20260903003503 50 357 14.0 22.0 0.00 0.00 0.00 78 1013.9
20260903003004 50 354 13.0 21.0 0.00 0.00 0.00 78 1013.8
20260903002507 51 11 10.0 21.0 0.00 0.00 0.00 78 1013.8
20260903002007 51 339 13.0 21.0 0.00 0.00 0.00 78 1013.6
20260903001506 51 7 12.0 20.0 0.00 0.00 0.00 78 1013.6
20260903001004 50 23 11.0 18.0 0.00 0.00 0.00 79 1013.5
20260903000503 50 14 11.0 20.0 0.00 0.00 0.00 78 1013.5
20260903000003 50 333 14.0 20.0 0.00 0.00 0.00 78 1013.5
20260902235503 50 180 13.0 20.0 0.00 0.00 0.00 77 1013.6
20260902235004 50 2 12.0 21.0 0.00 0.00 0.00 78 1013.5
20260902234504 50 318 12.0 25.0 0.00 0.00 0.00 77 1013.5
20260902234008 50 349 12.0 25.0 0.00 0.00 0.00 77 1013.5
20260902233504 50 350 11.0 23.0 0.00 0.00 0.00 77 1013.5
20260902233010 50 23 13.0 23.0 0.00 0.00 0.00 76 1013.4
20260902232507 50 333 14.0 22.0 0.00 0.00 0.00 75 1013.3
20260902232004 51 4 12.0 22.0 0.00 0.00 0.00 75 1013.2
20260902231509 51 22 11.0 22.0 0.00 0.00 0.00 74 1013.3
20260902231006 51 4 11.0 21.0 0.00 0.00 0.00 75 1013.2
20260902230505 51 354 10.0 20.0 0.00 0.00 0.00 75 1013.1
20260902230004 51 18 9.0 20.0 0.00 0.00 0.00 74 1013.0
20260902225505 51 69 7.0 17.0 0.00 0.00 0.00 75 1012.9
20260902225004 51 19 7.0 17.0 0.00 0.00 0.00 75 1013.0
20260902224513 50 21 7.0 17.0 0.00 0.00 0.00 75 1012.9
20260902224008 50 43 5.0 17.0 0.00 0.00 0.00 75 1012.9
20260902223504 49 22 7.0 19.0 0.00 0.00 0.00 76 1013.0
20260902223006 49 358 7.0 19.0 0.00 0.00 0.00 76 1013.2
20260902222503 48 20 10.0 16.0 0.00 0.00 0.00 76 1013.1
20260902222004 48 354 9.0 15.0 0.00 0.00 0.00 78 1013.0
20260902221508 47 2 8.0 16.0 0.00 0.00 0.00 78 1013.0
20260902221004 47 10 6.0 16.0 0.00 0.00 0.00 78 1012.8
20260902220504 47 13 10.0 18.0 0.00 0.00 0.00 78 1012.8
20260902220008 47 15 8.0 18.0 0.00 0.00 0.00 78 1012.6
20260902215504 47 1 10.0 17.0 0.00 0.00 0.00 78 1012.7
20260902215007 47 23 9.0 17.0 0.00 0.00 0.00 77 1012.5
20260902214511 47 18 10.0 17.0 0.00 0.00 0.00 77 1012.4
20260902214006 47 15 9.0 17.0 0.00 0.00 0.00 77 1012.3
20260902213507 47 18 10.0 17.0 0.00 0.00 0.00 76 1012.2
20260902213004 47 354 9.0 21.0 0.00 0.00 0.00 76 1012.0
20260902212507 47 11 9.0 21.0 0.00 0.00 0.00 76 1011.8
20260902212005 46 1 6.0 14.0 0.00 0.00 0.00 76 1011.9
20260902211507 46 355 7.0 13.0 0.00 0.00 0.00 76 1011.8
20260902211011 47 39 5.0 14.0 0.00 0.00 0.00 75 1011.7
20260902210504 47 18 6.0 16.0 0.00 0.00 0.00 75 1011.5
20260902210010 47 346 9.0 16.0 0.00 0.00 0.00 75 1011.5
20260902205505 47 7 9.0 17.0 0.00 0.00 0.00 75 1011.4
20260902205003 47 344 10.0 18.0 0.00 0.00 0.00 74 1011.5
20260902204513 47 351 11.0 18.0 0.00 0.00 0.00 74 1011.4
20260902204007 47 337 11.0 17.0 0.00 0.00 0.00 74 1011.3
20260902203504 47 351 11.0 18.0 0.00 0.00 0.00 74 1011.3
20260902203013 47 2 10.0 19.0 0.00 0.00 0.00 74 1011.3
20260902202509 47 341 8.0 19.0 0.00 0.00 0.00 74 1011.3
20260902202008 47 349 10.0 19.0 0.00 0.00 0.00 74 1011.3
20260902201511 47 7 11.0 19.0 0.00 0.00 0.00 74 1011.3
20260902201007 46 341 10.0 17.0 0.00 0.00 0.00 75 1011.3
20260902200511 46 343 9.0 17.0 0.00 0.00 0.00 75 1011.3
20260902200005 46 339 10.0 17.0 0.00 0.00 0.00 75 1011.3
20260902195509 46 353 10.0 16.0 0.00 0.00 0.00 76 1011.3
20260902195008 45 347 6.0 12.0 0.00 0.00 0.00 77 1011.2
20260902194524 45 358 6.0 12.0 0.00 0.00 0.00 77 1011.3
20260902194008 45 7 6.0 15.0 0.00 0.00 0.00 77 1011.2
20260902193508 45 8 8.0 15.0 0.00 0.00 0.00 76 1011.3
20260902193011 45 15 8.0 14.0 0.00 0.00 0.00 77 1011.0
20260902192510 45 22 6.0 13.0 0.00 0.00 0.00 77 1010.9
20260902192007 45 354 7.0 13.0 0.00 0.00 0.00 77 1010.9
20260902191518 45 14 5.0 11.0 0.00 0.00 0.00 77 1010.9
20260902191009 45 27 4.0 10.0 0.00 0.00 0.00 76 1010.9
20260902190509 45 345 6.0 10.0 0.00 0.00 0.00 76 1010.9
20260902190017 45 337 3.0 10.0 0.00 0.00 0.00 75 1010.7
20260902185508 46 20 4.0 8.0 0.00 0.00 0.00 75 1010.8
20260902185004 46 36 3.0 7.0 0.00 0.00 0.00 75 1010.7
20260902184523 45 37 3.0 9.0 0.00 0.00 0.00 76 1010.7
20260902184011 45 30 3.0 9.0 0.00 0.00 0.00 76 1010.6
20260902183510 45 37 4.0 8.0 0.00 0.00 0.00 77 1010.7
20260902183014 44 37 2.0 9.0 0.00 0.00 0.00 77 1010.8
20260902182507 44 14 5.0 9.0 0.00 0.00 0.00 76 1010.9
20260902182009 45 337 5.0 10.0 0.00 0.00 0.00 76 1011.0
20260902181519 45 1 6.0 10.0 0.00 0.00 0.00 76 1010.9
20260902181011 45 4 5.0 9.0 0.00 0.00 0.00 75 1011.0
20260902180511 45 11 2.0 5.0 0.00 0.00 0.00 75 1011.0
20260902180018 45 16 2.0 6.0 0.00 0.00 0.00 75 1010.9
20260902175512 45 14 3.0 6.0 0.00 0.00 0.00 75 1010.8
20260902175012 45 20 3.0 7.0 0.00 0.00 0.00 75 1010.7
20260902174515 45 2 4.0 7.0 0.00 0.00 0.00 74 1010.7
20260902174017 45 20 4.0 6.0 0.00 0.00 0.00 74 1010.7
20260902173514 45 22 2.0 6.0 0.00 0.00 0.00 74 1010.6
20260902173021 45 16 2.0 6.0 0.00 0.00 0.00 74 1010.6
20260902172510 45 355 3.0 9.0 0.00 0.00 0.00 73 1010.6
20260902172009 46 3 4.0 9.0 0.00 0.00 0.00 73 1010.6
20260902171516 46 15 3.0 7.0 0.00 0.00 0.00 74 1010.6
20260902171013 46 29 3.0 6.0 0.00 0.00 0.00 74 1010.6
20260902170508 46 18 1.0 6.0 0.00 0.00 0.00 74 1010.6
20260902170024 46 18 3.0 7.0 0.00 0.00 0.00 74 1010.7
20260902165513 46 5 4.0 8.0 0.00 0.00 0.00 73 1011.0
20260902165013 46 349 5.0 8.0 0.00 0.00 0.00 73 1010.9
20260902164523 46 8 4.0 6.0 0.00 0.00 0.00 73 1011.0
20260902164010 46 331 3.0 8.0 0.00 0.00 0.00 73 1011.1
20260902163513 46 360 3.0 8.0 0.00 0.00 0.00 72 1011.1
20260902163027 46 17 3.0 7.0 0.00 0.00 0.00 72 1011.1
20260902162517 47 336 3.0 7.0 0.00 0.00 0.00 72 1011.2
20260902162013 47 8 3.0 6.0 0.00 0.00 0.00 73 1011.1
20260902161529 47 51 2.0 6.0 0.00 0.00 0.00 73 1011.1
20260902161016 47 57 1.0 7.0 0.00 0.00 0.00 73 1011.1
20260902160514 47 6 2.0 7.0 0.00 0.00 0.00 74 1011.2
20260902160027 47 30 2.0 6.0 0.00 0.00 0.00 74 1011.3
20260902155519 47 18 2.0 5.0 0.00 0.00 0.00 74 1011.4
20260902155012 47 26 0.0 6.0 0.00 0.00 0.00 74 1011.5
20260902154544 47 12 2.0 7.0 0.00 0.00 0.00 74 1011.5
20260902154019 47 15 4.0 12.0 0.00 0.00 0.00 74 1011.6
20260902153512 47 355 4.0 12.0 0.00 0.00 0.00 74 1011.6
20260902153025 48 344 6.0 12.0 0.00 0.00 0.00 74 1011.7
20260902152515 47 3 6.0 12.0 0.00 0.00 0.00 75 1011.7
20260902152013 47 354 6.0 10.0 0.00 0.00 0.00 75 1011.6
20260902151536 47 358 6.0 11.0 0.00 0.00 0.00 75 1011.6
20260902151019 48 330 6.0 11.0 0.00 0.00 0.00 75 1011.6
20260902150518 48 345 6.0 11.0 0.00 0.00 0.00 75 1011.6
20260902150026 47 357 5.0 11.0 0.00 0.00 0.00 76 1011.6
20260902145513 47 359 4.0 8.0 0.00 0.00 0.00 76 1011.7
20260902145016 47 346 4.0 7.0 0.00 0.00 0.00 76 1011.7
20260902144524 47 18 4.0 7.0 0.00 0.00 0.00 76 1011.7
20260902144012 47 30 3.0 7.0 0.00 0.00 0.00 76 1011.7
20260902143516 47 6 4.0 7.0 0.00 0.00 0.00 76 1011.7
20260902143025 47 16 3.0 6.0 0.00 0.00 0.00 76 1011.6
20260902142506 47 6 3.0 6.0 0.00 0.00 0.00 76 1011.7
20260902142005 47 23 2.0 4.0 0.00 0.00 0.00 75 1011.8
20260902141507 47 19 2.0 6.0 0.00 0.00 0.00 75 1011.8
20260902141007 48 1 3.0 8.0 0.00 0.00 0.00 74 1011.8
20260902140506 48 355 4.0 8.0 0.00 0.00 0.00 73 1011.8
20260902140015 49 345 5.0 8.0 0.00 0.00 0.00 72 1011.8
20260902135509 49 338 5.0 12.0 0.00 0.00 0.00 71 1011.8
20260902135005 50 338 5.0 12.0 0.00 0.00 0.00 71 1011.8
20260902134517 50 322 4.0 11.0 0.00 0.00 0.00 70 1011.8
20260902134007 50 326 5.0 11.0 0.00 0.00 0.00 71 1011.9
20260902133515 50 313 4.0 10.0 0.00 0.00 0.00 71 1012.0
20260902133021 50 341 5.0 9.0 0.00 0.00 0.00 73 1012.0
20260902132508 50 340 5.0 12.0 0.00 0.00 0.00 73 1012.1
20260902132015 50 342 5.0 12.0 0.00 0.00 0.00 73 1012.2
20260902131527 50 360 5.0 8.0 0.00 0.00 0.00 73 1012.2
20260902131004 49 332 4.0 8.0 0.00 0.00 0.00 73 1012.2
20260902130505 49 359 5.0 8.0 0.00 0.00 0.00 73 1012.4
20260902130024 49 346 4.0 8.0 0.00 0.00 0.00 73 1012.4
20260902125506 49 352 3.0 6.0 0.00 0.00 0.00 73 1012.4
20260902125008 49 356 2.0 6.0 0.00 0.00 0.00 73 1012.5
20260902124509 49 12 2.0 8.0 0.00 0.00 0.00 73 1012.6
20260902124009 49 338 5.0 8.0 0.00 0.00 0.00 73 1012.6
20260902123512 49 357 2.0 5.0 0.00 0.00 0.00 73 1012.7
20260902123024 49 308 1.0 3.0 0.00 0.00 0.00 73 1012.7
20260902122514 49 308 2.0 3.0 0.00 0.00 0.00 72 1012.8
20260902122009 49 308 0.0 3.0 0.00 0.00 0.00 71 1012.8
20260902121526 49 308 0.0 4.0 0.00 0.00 0.00 71 1012.8
20260902121017 49 313 1.0 5.0 0.00 0.00 0.00 72 1012.7
20260902120509 49 354 2.0 5.0 0.00 0.00 0.00 71 1012.7
20260902120032 49 73 1.0 6.0 0.00 0.00 0.00 72 1012.7
20260902115510 49 49 2.0 6.0 0.00 0.00 0.00 72 1012.8
20260902115005 49 19 2.0 6.0 0.00 0.00 0.00 72 1012.8
20260902114518 49 18 3.0 6.0 0.00 0.00 0.00 73 1012.9
20260902114010 49 31 3.0 6.0 0.00 0.00 0.00 73 1012.9
20260902113510 49 32 2.0 6.0 0.00 0.00 0.00 73 1012.9
20260902113014 49 70 1.0 9.0 0.00 0.00 0.00 73 1013.0
20260902112509 50 29 3.0 9.0 0.00 0.00 0.00 73 1013.1
20260902112014 49 349 4.0 9.0 0.00 0.00 0.00 74 1013.1
20260902111521 50 353 6.0 10.0 0.00 0.00 0.00 74 1013.2
20260902111013 50 321 6.0 10.0 0.00 0.00 0.00 74 1013.3
20260902110512 49 330 4.0 10.0 0.00 0.00 0.00 74 1013.4
20260902110025 49 317 5.0 10.0 0.00 0.00 0.00 75 1013.5
20260902105516 49 327 6.0 9.0 0.00 0.00 0.00 75 1013.4
20260902105017 49 318 6.0 10.0 0.00 0.00 0.00 75 1013.4
20260902104514 49 337 7.0 10.0 0.00 0.00 0.00 74 1013.4
20260902104016 48 318 7.0 10.0 0.00 0.00 0.00 75 1013.4
20260902103512 48 331 5.0 11.0 0.00 0.00 0.00 75 1013.3
20260902103009 47 333 7.0 11.0 0.00 0.00 0.00 74 1013.3
20260902102509 48 326 5.0 9.0 0.00 0.00 0.00 73 1013.2
20260902102010 49 343 5.0 9.0 0.00 0.00 0.00 72 1013.1
20260902101518 49 318 5.0 10.0 0.00 0.00 0.00 71 1013.1
20260902101014 50 326 6.0 10.0 0.00 0.00 0.00 71 1013.2
20260902100513 50 322 5.0 11.0 0.00 0.00 0.00 71 1013.1
20260902100027 50 310 6.0 11.0 0.00 0.00 0.00 70 1012.9
20260902095514 51 328 7.0 12.0 0.00 0.00 0.00 70 1012.8
20260902095016 51 345 7.0 14.0 0.00 0.00 0.00 71 1012.9
20260902094530 51 322 8.0 14.0 0.00 0.00 0.00 71 1012.8
20260902094012 51 297 8.0 14.0 0.00 0.00 0.00 71 1012.7
20260902093518 51 328 7.0 13.0 0.00 0.00 0.00 71 1012.7
20260902093035 51 323 8.0 14.0 0.00 0.00 0.00 72 1012.6
20260902092519 50 325 9.0 14.0 0.00 0.00 0.00 72 1012.6
20260902092016 50 349 8.0 14.0 0.00 0.00 0.00 72 1012.5
20260902091527 50 356 10.0 14.0 0.00 0.00 0.00 72 1012.5
20260902091012 50 335 9.0 12.0 0.00 0.00 0.00 72 1012.4
20260902090513 50 331 8.0 12.0 0.00 0.00 0.00 71 1012.5
20260902090018 50 312 7.0 12.0 0.00 0.00 0.00 71 1012.5
20260902085511 50 318 7.0 12.0 0.00 0.00 0.00 71 1012.5
20260902085015 51 314 7.0 11.0 0.00 0.00 0.00 70 1012.5
20260902084528 51 342 7.0 11.0 0.00 0.00 0.00 70 1012.4
20260902084015 51 324 7.0 11.0 0.00 0.00 0.00 69 1012.4
20260902083513 52 320 7.0 11.0 0.00 0.00 0.00 69 1012.3
20260902083036 52 331 7.0 11.0 0.00 0.00 0.00 69 1012.4
20260902082503 52 341 7.0 12.0 0.00 0.00 0.00 69 1012.4
20260902082008 52 339 8.0 13.0 0.00 0.00 0.00 69 1012.3
20260902081507 53 344 7.0 13.0 0.00 0.00 0.00 69 1012.3
20260902081016 53 338 8.0 14.0 0.00 0.00 0.00 68 1012.4
20260902080509 53 334 10.0 14.0 0.00 0.00 0.00 68 1012.4
20260902080005 53 351 7.0 12.0 0.00 0.00 0.00 69 1012.3
20260902075511 54 343 7.0 12.0 0.00 0.00 0.00 68 1012.3
20260902075007 54 335 7.0 13.0 0.00 0.00 0.00 68 1012.2
20260902074505 55 328 8.0 14.0 0.00 0.00 0.00 67 1012.2
20260902074012 55 345 8.0 17.0 0.00 0.00 0.00 67 1012.1
20260902073505 56 324 9.0 17.0 0.00 0.00 0.00 67 1012.1
20260902073014 56 337 6.0 16.0 0.00 0.00 0.00 67 1012.2
20260902072503 56 347 9.0 19.0 0.00 0.00 0.00 66 1012.2
20260902072006 57 8 9.0 19.0 0.00 0.00 0.00 66 1012.2
20260902071507 57 14 8.0 16.0 0.00 0.00 0.00 66 1012.2
20260902071008 57 10 6.0 17.0 0.00 0.00 0.00 66 1012.2
20260902070507 56 347 8.0 17.0 0.00 0.00 0.00 65 1012.1
20260902070015 57 358 10.0 19.0 0.00 0.00 0.00 64 1012.2
20260902065508 57 347 11.0 19.0 0.00 0.00 0.00 64 1012.2
20260902065012 58 344 9.0 17.0 0.00 0.00 0.00 63 1012.2
20260902064517 58 11 7.0 14.0 0.00 0.00 0.00 65 1012.2
20260902064006 57 351 6.0 14.0 0.00 0.00 0.00 65 1012.3
20260902063512 57 339 7.0 16.0 0.00 0.00 0.00 65 1012.3
20260902063017 57 345 10.0 16.0 0.00 0.00 0.00 63 1012.4
20260902062516 59 332 9.0 15.0 0.00 0.00 0.00 62 1012.5
20260902062014 60 341 9.0 15.0 0.00 0.00 0.00 63 1012.5
20260902061506 59 339 7.0 17.0 0.00 0.00 0.00 65 1012.6
20260902061011 59 349 8.0 18.0 0.00 0.00 0.00 62 1012.6
20260902060508 60 358 9.0 18.0 0.00 0.00 0.00 64 1012.7
20260902060008 58 11 6.0 15.0 0.00 0.00 0.00 64 1012.5
20260902055508 58 347 6.0 17.0 0.00 0.00 0.00 64 1012.6
20260902055010 59 7 8.0 17.0 0.00 0.00 0.00 62 1012.7
20260902054524 60 337 13.0 17.0 0.00 0.00 0.00 61 1012.6
20260902054009 58 339 8.0 16.0 0.00 0.00 0.00 64 1012.7
20260902053508 59 336 9.0 19.0 0.00 0.00 0.00 60 1012.7
20260902053026 60 338 12.0 19.0 0.00 0.00 0.00 60 1012.7
20260902052509 59 330 8.0 17.0 0.00 0.00 0.00 61 1012.8
20260902052014 59 339 12.0 18.0 0.00 0.00 0.00 59 1012.9
20260902051527 60 337 7.0 18.0 0.00 0.00 0.00 60 1012.9
20260902051007 61 311 13.0 18.0 0.00 0.00 0.00 57 1012.8
20260902050520 61 330 11.0 18.0 0.00 0.00 0.00 59 1012.8
20260902050010 60 349 10.0 19.0 0.00 0.00 0.00 61 1012.8
20260902045505 60 351 11.0 22.0 0.00 0.00 0.00 59 1012.8
20260902045008 60 3 7.0 22.0 0.00 0.00 0.00 61 1012.8
20260902044513 60 337 9.0 17.0 0.00 0.00 0.00 62 1012.8
20260902044009 60 345 9.0 21.0 0.00 0.00 0.00 61 1012.9
20260902043510 60 340 11.0 21.0 0.00 0.00 0.00 59 1012.9
20260902043017 61 4 11.0 21.0 0.00 0.00 0.00 60 1012.8
20260902042511 61 346 13.0 21.0 0.00 0.00 0.00 61 1012.7
20260902042012 60 329 12.0 20.0 0.00 0.00 0.00 60 1012.8
20260902041510 61 338 9.0 18.0 0.00 0.00 0.00 63 1012.7
20260902041016 60 4 11.0 21.0 0.00 0.00 0.00 62 1012.8
20260902040511 61 16 12.0 21.0 0.00 0.00 0.00 61 1012.8
20260902040030 60 336 11.0 18.0 0.00 0.00 0.00 60 1012.8
20260902035512 60 334 10.0 18.0 0.00 0.00 0.00 60 1012.8
20260902035010 62 342 11.0 20.0 0.00 0.00 0.00 61 1012.9
20260902034530 61 336 10.0 20.0 0.00 0.00 0.00 61 1012.9
20260902034007 61 312 9.0 16.0 0.00 0.00 0.00 66 1013.0
20260902033512 59 333 1.0 5.0 0.00 0.00 0.00 71 1013.1
20260902033016 58 141 0.0 4.0 0.00 0.00 0.00 70 1013.2
20260902032512 58 139 2.0 5.0 0.00 0.00 0.00 71 1013.3
20260902032023 57 132 1.0 6.0 0.00 0.00 0.00 71 1013.3
20260902031527 58 195 4.0 6.0 0.00 0.00 0.00 71 1013.3
20260902031011 58 135 3.0 6.0 0.00 0.00 0.00 71 1013.4
20260902030514 58 105 3.0 6.0 0.00 0.00 0.00 71 1013.6
20260902030024 58 204 2.0 6.0 0.00 0.00 0.00 72 1013.6
20260902025519 58 175 4.0 7.0 0.00 0.00 0.00 71 1013.7
20260902025014 57 260 1.0 7.0 0.00 0.00 0.00 72 1013.7
20260902024521 57 209 1.0 5.0 0.00 0.00 0.00 72 1014.0
20260902024019 57 128 1.0 4.0 0.00 0.00 0.00 72 1014.1
20260902023516 57 214 2.0 6.0 0.00 0.00 0.00 72 1014.2
20260902023033 56 175 2.0 6.0 0.00 0.00 0.00 74 1014.1
20260902022504 56 193 2.0 10.0 0.00 0.00 0.00 73 1014.4
20260902022005 55 232 5.0 10.0 0.00 0.00 0.00 72 1014.5
20260902021525 56 219 4.0 9.0 0.00 0.00 0.00 72 1014.5
20260902021007 56 191 3.0 9.0 0.00 0.00 0.00 73 1014.5
20260902020504 56 192 4.0 9.0 0.00 0.00 0.00 73 1014.7
20260902020004 56 208 3.0 9.0 0.00 0.00 0.00 70 1014.8
20260902015504 57 147 1.0 3.0 0.00 0.00 0.00 70 1014.9
20260902015004 57 71 0.0 2.0 0.00 0.00 0.00 71 1014.9
20260902014507 56 70 0.0 3.0 0.00 0.00 0.00 73 1015.0
20260902014006 55 101 1.0 7.0 0.00 0.00 0.00 72 1015.1